Flag for U.S.A. Weather past 2 weeks in New York, New York, U.S.A.

Now
67 °F

Clear.


Feels Like: 67 °F
Forecast: 65 / 79 °F
Wind: 6 mph from North

Location: New York City - Central Park

Current Time: Jul 29, 2014 at 2:45:49 AM

Latest Report: Jul 29, 2014 at 1:51 AM


Visibility: 10 mi

Pressure: 29.73 "Hg

Humidity: 66%

Dew point: 55 °F

Location of New YorkLocation

Historic Weather in New York — Graph

°F

New York temperature yesterday

Maximum temperature yesterday: 80 °F (at 4:51 PM)
Minimum temperature yesterday: 69 °F (at 4:51 AM)
Average temperature yesterday: 74 °F

Past Weeks' High & Low Weather Summary

 TemperatureHumidityPressure
High86 °F (Jul 23, 12:51 PM)97% (Jul 14, 2:51 AM)30.25 "Hg (Jul 14, 2:51 AM)
Low65 °F (Jul 18, 5:51 AM)28% (Jul 19, 4:51 AM)29.52 "Hg (Jul 28, 1:51 PM)
Average75 °F66%29.92 "Hg
* Reported Jul 14 12:51 AM — Jul 29 12:51 AM, New York, Weather by CustomWeather, © 2014

Note: Actual official high and low records may vary slightly from our data, if they occured in-between our weather recording intervals... More about our weather records

Advertising

New York weather history for previous 24 hours

 ConditionsComfort  
Time TempWeatherWind HumidityBarometerVisibility
12:51 AM
Jul 29
68 °FPassing clouds.6 mph63%29.71 "Hg10 mi
11:51 PM
Jul 28
69 °FPassing clouds.6 mph63%29.69 "Hg10 mi
10:51 PM70 °FClear.9 mph64%29.69 "Hg10 mi
9:51 PM71 °FPassing clouds.7 mph63%29.67 "Hg10 mi
8:51 PM72 °FSunny.14 mph61%29.63 "Hg10 mi
7:51 PM74 °FPassing clouds.9 mph56%29.60 "Hg10 mi
6:51 PM80 °FPartly sunny.12 mph45%29.57 "Hg10 mi
5:51 PM80 °FPassing clouds.9 mph47%29.54 "Hg10 mi
4:51 PM80 °FPassing clouds.10 mph49%29.54 "Hg10 mi
3:51 PM79 °FBroken clouds.N/A56%29.53 "Hg10 mi
2:51 PM79 °FPartly sunny.5 mph54%29.52 "Hg10 mi
1:51 PM79 °FPassing clouds.6 mph56%29.52 "Hg10 mi
12:51 PM78 °FPartly sunny.9 mph60%29.53 "Hg10 mi
11:51 AM76 °FPartly sunny.8 mph69%29.55 "Hg10 mi
10:51 AM73 °FMostly cloudy.7 mph79%29.55 "Hg10 mi
9:51 AM73 °FOvercast.N/A81%29.55 "Hg10 mi
8:51 AM72 °FOvercast.N/A84%29.55 "Hg10 mi
7:51 AM71 °FMore clouds than sun.3 mph87%29.55 "Hg10 mi
6:51 AM70 °FMostly cloudy.6 mph90%29.56 "Hg10 mi
5:51 AM69 °FClear.No wind90%29.54 "Hg10 mi
4:51 AM69 °FPassing clouds.8 mph90%29.54 "Hg10 mi
3:51 AM70 °FLight rain. Fog.6 mph90%29.57 "Hg6 mi
3:02 AM74 °FFog.3 mph94%29.60 "Hg3 mi
Weather by CustomWeather, © 2014

See weather overviewHow to use our weather pages